• în România
  • Lista ţărilor
  • Pe 7 zile
  • Temperatura apei
  • Hartă satelitară
  • Meteo pe hartă
  • Widget-uri
  • user-avatar
    Intrare

    Meteo pe oră la Zawtat

    Astăzi, 22 Iunie, Vineri

    Timp Temperatura Precipitaţii Vânt Presiune Umiditate
    00:00 +21°C° 0 mm 1 m/s 738 mmHg 82%
    01:00 +21°C° 0 mm 1 m/s 738 mmHg 80%
    02:00 +21°C° 0 mm 1 m/s 738 mmHg 80%
    03:00 +20°C° 0 mm 1 m/s 737 mmHg 80%
    04:00 +20°C° 0 mm 1 m/s 737 mmHg 80%
    05:00 +20°C° 0,2 mm 2 m/s 737 mmHg 77%
    06:00 +23°C° 0,2 mm 2 m/s 737 mmHg 75%
    07:00 +24°C° 0,2 mm 2 m/s 737 mmHg 72%
    08:00 +25°C° 0,3 mm 2 m/s 737 mmHg 68%
    09:00 +26°C° 0,3 mm 3 m/s 737 mmHg 65%
    10:00 +27°C° 0,3 mm 3 m/s 737 mmHg 62%
    11:00 +27°C° 0,6 mm 3 m/s 737 mmHg 65%
    12:00 +27°C° 0,6 mm 3 m/s 737 mmHg 67%
    13:00 +27°C° 0,6 mm 3 m/s 737 mmHg 70%
    14:00 +27°C° 0,9 mm 2 m/s 737 mmHg 71%
    15:00 +26°C° 0,9 mm 2 m/s 737 mmHg 73%
    16:00 +25°C° 0,9 mm 2 m/s 737 mmHg 75%
    17:00 +24°C° 0,2 mm 2 m/s 737 mmHg 77%
    18:00 +23°C° 0,2 mm 2 m/s 737 mmHg 80%
    19:00 +20°C° 0,2 mm 2 m/s 737 mmHg 82%
    20:00 +19°C° 0,2 mm 2 m/s 738 mmHg 82%
    21:00 +18°C° 0,2 mm 3 m/s 738 mmHg 83%
    22:00 +17°C° 0,2 mm 3 m/s 738 mmHg 83%
    23:00 +17°C° 0,5 mm 4 m/s 739 mmHg 83%

    Mâine, 23 Iunie, Sâmbătă

    Timp Temperatura Precipitaţii Vânt Presiune Umiditate
    00:00 +15°C° 0,5 mm 4 m/s 739 mmHg 84%
    01:00 +15°C° 0,5 mm 5 m/s 739 mmHg 84%
    02:00 +14°C° 0,3 mm 5 m/s 739 mmHg 82%
    03:00 +14°C° 0,3 mm 5 m/s 739 mmHg 81%
    04:00 +14°C° 0,3 mm 5 m/s 739 mmHg 80%
    05:00 +15°C° 0,2 mm 5 m/s 739 mmHg 77%
    06:00 +15°C° 0,2 mm 5 m/s 739 mmHg 74%
    07:00 +16°C° 0,2 mm 5 m/s 740 mmHg 71%
    08:00 +19°C° 0 mm 4 m/s 740 mmHg 64%
    09:00 +21°C° 0 mm 3 m/s 740 mmHg 57%
    10:00 +22°C° 0 mm 3 m/s 740 mmHg 50%
    11:00 +24°C° 0 mm 2 m/s 740 mmHg 48%
    12:00 +25°C° 0 mm 2 m/s 740 mmHg 47%
    13:00 +25°C° 0 mm 2 m/s 739 mmHg 45%
    14:00 +25°C° 0 mm 3 m/s 739 mmHg 46%
    15:00 +25°C° 0 mm 3 m/s 739 mmHg 48%
    16:00 +25°C° 0 mm 4 m/s 739 mmHg 49%
    17:00 +23°C° 0 mm 4 m/s 739 mmHg 55%
    18:00 +21°C° 0 mm 4 m/s 739 mmHg 61%
    19:00 +20°C° 0 mm 4 m/s 739 mmHg 67%
    20:00 +18°C° 0 mm 4 m/s 739 mmHg 68%
    21:00 +17°C° 0 mm 4 m/s 740 mmHg 68%
    22:00 +15°C° 0 mm 4 m/s 740 mmHg 69%
    23:00 +15°C° 0 mm 4 m/s 740 mmHg 70%

    Poimâine, 24 Iunie, Duminică

    Timp Temperatura Precipitaţii Vânt Presiune Umiditate
    00:00 +14°C° 0 mm 4 m/s 740 mmHg 72%
    01:00 +13°C° 0 mm 5 m/s 740 mmHg 73%
    02:00 +13°C° 0 mm 5 m/s 740 mmHg 75%
    03:00 +13°C° 0 mm 5 m/s 740 mmHg 77%
    04:00 +12°C° 0 mm 5 m/s 740 mmHg 79%
    05:00 +14°C° 0 mm 4 m/s 739 mmHg 75%
    06:00 +15°C° 0 mm 4 m/s 739 mmHg 71%
    07:00 +17°C° 0 mm 4 m/s 739 mmHg 67%
    08:00 +19°C° 0 mm 4 m/s 739 mmHg 61%
    09:00 +21°C° 0 mm 3 m/s 739 mmHg 54%
    10:00 +24°C° 0 mm 3 m/s 740 mmHg 47%
    11:00 +24°C° 0 mm 2 m/s 739 mmHg 46%
    12:00 +25°C° 0 mm 2 m/s 739 mmHg 45%
    13:00 +26°C° 0 mm 2 m/s 739 mmHg 44%
    14:00 +25°C° 0 mm 2 m/s 739 mmHg 48%
    15:00 +25°C° 0 mm 3 m/s 739 mmHg 53%
    16:00 +24°C° 0 mm 3 m/s 739 mmHg 57%
    17:00 +22°C° 0 mm 3 m/s 738 mmHg 61%
    18:00 +21°C° 0 mm 3 m/s 738 mmHg 64%
    19:00 +20°C° 0 mm 3 m/s 738 mmHg 67%
    20:00 +19°C° 0 mm 3 m/s 739 mmHg 67%
    21:00 +18°C° 0 mm 4 m/s 739 mmHg 67%
    22:00 +18°C° 0 mm 4 m/s 739 mmHg 68%
    23:00 +17°C° 0 mm 4 m/s 739 mmHg 69%

    25 Iunie, Luni

    Timp Temperatura Precipitaţii Vânt Presiune Umiditate
    00:00 +17°C° 0 mm 4 m/s 739 mmHg 70%
    01:00 +15°C° 0 mm 4 m/s 739 mmHg 72%
    02:00 +15°C° 0 mm 4 m/s 738 mmHg 73%
    03:00 +15°C° 0 mm 4 m/s 738 mmHg 74%
    04:00 +15°C° 0 mm 4 m/s 738 mmHg 76%
    05:00 +17°C° 0 mm 4 m/s 738 mmHg 74%
    06:00 +18°C° 0 mm 4 m/s 738 mmHg 73%
    07:00 +18°C° 0 mm 4 m/s 738 mmHg 72%
    08:00 +20°C° 0 mm 4 m/s 738 mmHg 66%
    09:00 +22°C° 0 mm 3 m/s 738 mmHg 61%
    10:00 +24°C° 0 mm 3 m/s 738 mmHg 55%
    11:00 +25°C° 0,1 mm 2 m/s 738 mmHg 54%
    12:00 +25°C° 0,1 mm 2 m/s 738 mmHg 53%
    13:00 +26°C° 0,1 mm 2 m/s 738 mmHg 51%
    14:00 +26°C° 0,1 mm 2 m/s 737 mmHg 53%
    15:00 +25°C° 0,1 mm 2 m/s 737 mmHg 55%
    16:00 +25°C° 0,1 mm 2 m/s 737 mmHg 57%
    17:00 +24°C° 0,1 mm 2 m/s 737 mmHg 62%
    18:00 +21°C° 0,1 mm 2 m/s 737 mmHg 67%
    19:00 +20°C° 0,1 mm 3 m/s 737 mmHg 73%
    20:00 +19°C° 0,3 mm 3 m/s 737 mmHg 76%
    21:00 +18°C° 0,3 mm 4 m/s 737 mmHg 80%
    22:00 +18°C° 0,3 mm 4 m/s 738 mmHg 84%
    23:00 +17°C° 0,6 mm 4 m/s 737 mmHg 85%

    26 Iunie, Marţi

    Timp Temperatura Precipitaţii Vânt Presiune Umiditate
    00:00 +17°C° 0,6 mm 4 m/s 737 mmHg 86%
    01:00 +17°C° 0,6 mm 4 m/s 737 mmHg 87%
    02:00 +17°C° 0,4 mm 4 m/s 736 mmHg 87%
    03:00 +17°C° 0,4 mm 4 m/s 736 mmHg 88%
    04:00 +15°C° 0,4 mm 5 m/s 736 mmHg 88%
    05:00 +16°C° 0,4 mm 5 m/s 736 mmHg 87%
    06:00 +17°C° 0,4 mm 4 m/s 736 mmHg 86%
    07:00 +17°C° 0,4 mm 4 m/s 736 mmHg 85%
    08:00 +19°C° 0,2 mm 4 m/s 736 mmHg 81%
    09:00 +20°C° 0,2 mm 4 m/s 736 mmHg 76%
    10:00 +21°C° 0,2 mm 4 m/s 736 mmHg 71%
    11:00 +21°C° 0,2 mm 3 m/s 735 mmHg 71%
    12:00 +22°C° 0,2 mm 3 m/s 735 mmHg 71%
    13:00 +22°C° 0,2 mm 3 m/s 735 mmHg 71%
    14:00 +22°C° 0,2 mm 3 m/s 735 mmHg 73%
    15:00 +21°C° 0,2 mm 3 m/s 735 mmHg 75%
    16:00 +21°C° 0,2 mm 3 m/s 735 mmHg 77%
    17:00 +20°C° 0,1 mm 3 m/s 735 mmHg 78%
    18:00 +20°C° 0,1 mm 4 m/s 735 mmHg 80%
    19:00 +19°C° 0,1 mm 4 m/s 735 mmHg 81%
    20:00 +19°C° 0 mm 4 m/s 735 mmHg 81%
    21:00 +19°C° 0 mm 4 m/s 735 mmHg 82%
    22:00 +18°C° 0 mm 4 m/s 736 mmHg 82%
    23:00 +18°C° 0,1 mm 4 m/s 735 mmHg 82%

    27 Iunie, Miercuri

    Timp Temperatura Precipitaţii Vânt Presiune Umiditate
    00:00 +18°C° 0,1 mm 3 m/s 735 mmHg 82%
    01:00 +18°C° 0,1 mm 3 m/s 735 mmHg 82%
    02:00 +18°C° 0,1 mm 3 m/s 735 mmHg 82%
    03:00 +18°C° 0,1 mm 3 m/s 735 mmHg 82%
    04:00 +18°C° 0,1 mm 3 m/s 734 mmHg 82%
    05:00 +18°C° 0,2 mm 4 m/s 735 mmHg 82%
    06:00 +19°C° 0,2 mm 4 m/s 735 mmHg 82%
    07:00 +19°C° 0,2 mm 5 m/s 735 mmHg 83%
    08:00 +21°C° 0 mm 5 m/s 735 mmHg 76%
    09:00 +22°C° 0 mm 5 m/s 735 mmHg 70%
    10:00 +25°C° 0 mm 5 m/s 735 mmHg 64%
    11:00 +25°C° 0 mm 5 m/s 735 mmHg 63%
    12:00 +26°C° 0 mm 4 m/s 735 mmHg 62%
    13:00 +26°C° 0 mm 3 m/s 735 mmHg 61%
    14:00 +26°C° 0,1 mm 3 m/s 735 mmHg 63%
    15:00 +26°C° 0,1 mm 3 m/s 735 mmHg 65%
    16:00 +26°C° 0,1 mm 3 m/s 735 mmHg 67%
    17:00 +24°C° 0 mm 3 m/s 735 mmHg 69%
    18:00 +22°C° 0 mm 4 m/s 735 mmHg 72%
    19:00 +21°C° 0 mm 4 m/s 736 mmHg 75%
    20:00 +21°C° 0 mm 4 m/s 736 mmHg 76%
    21:00 +20°C° 0 mm 4 m/s 736 mmHg 76%
    22:00 +19°C° 0 mm 4 m/s 736 mmHg 76%
    23:00 +19°C° 0 mm 4 m/s 736 mmHg 77%
    Arată mai mult